TimeAKDT,TemperatureF,Dew PointF,Humidity,Sea Level PressureIn,VisibilityMPH,Wind Direction,Wind SpeedMPH,Gust SpeedMPH,PrecipitationIn,Events,Conditions,WindDirDegrees,DateUTC
12:56 AM,46.9,43.0,86,29.72,10.0,SSW,4.6,-,N/A,,Mostly Cloudy,210,2013-09-05 08:56:00
1:56 AM,48.0,43.0,83,29.75,10.0,SW,5.8,-,N/A,,Overcast,230,2013-09-05 09:56:00
2:56 AM,46.9,43.0,86,29.78,10.0,NW,5.8,-,N/A,,Partly Cloudy,310,2013-09-05 10:56:00
3:56 AM,43.0,39.9,89,29.81,10.0,Calm,Calm,-,N/A,,Overcast,0,2013-09-05 11:56:00
4:56 AM,39.9,37.9,93,29.84,10.0,Calm,Calm,-,N/A,,Scattered Clouds,0,2013-09-05 12:56:00
5:56 AM,41.0,37.9,89,29.85,10.0,Calm,Calm,-,N/A,,Clear,0,2013-09-05 13:56:00
6:20 AM,39.2,39.2,100,29.84,0.5,ENE,4.6,-,N/A,Fog,Fog,70,2013-09-05 14:20:00
6:30 AM,39.2,39.2,100,29.85,0.2,East,3.5,-,N/A,Fog,Fog,80,2013-09-05 14:30:00
6:55 AM,41.0,39.2,93,29.87,0.1,Calm,Calm,-,N/A,Fog,Fog,0,2013-09-05 14:55:00
7:55 AM,42.8,41.0,93,29.88,0.2,ENE,5.8,-,N/A,Fog,Fog,70,2013-09-05 15:55:00
8:25 AM,44.6,42.8,93,29.87,1.0,ENE,5.8,-,N/A,,Mostly Cloudy,70,2013-09-05 16:25:00
8:47 AM,44.6,42.8,93,29.87,1.0,ENE,6.9,-,N/A,,Overcast,70,2013-09-05 16:47:00
8:55 AM,44.6,42.8,93,29.89,1.5,ENE,5.8,-,N/A,,Overcast,70,2013-09-05 16:55:00
9:09 AM,44.6,42.8,93,29.88,2.0,East,5.8,-,N/A,,Overcast,80,2013-09-05 17:09:00
9:26 AM,44.6,42.8,93,29.88,3.0,East,4.6,-,N/A,,Mostly Cloudy,80,2013-09-05 17:26:00
9:55 AM,46.4,44.6,93,29.90,5.0,East,3.5,-,N/A,,Mostly Cloudy,80,2013-09-05 17:55:00
10:55 AM,50.0,42.8,76,29.89,7.0,East,8.1,-,N/A,,Mostly Cloudy,80,2013-09-05 18:55:00
11:55 AM,53.6,42.8,67,29.90,7.0,East,4.6,-,N/A,,Overcast,100,2013-09-05 19:55:00
12:55 PM,55.4,42.8,63,29.91,13.0,ENE,3.5,-,N/A,,Overcast,60,2013-09-05 20:55:00
1:55 PM,57.2,42.8,59,29.91,13.0,Variable,3.5,-,N/A,,Overcast,0,2013-09-05 21:55:00
2:55 PM,60.8,42.8,52,29.90,13.0,Calm,Calm,-,N/A,,Mostly Cloudy,0,2013-09-05 22:55:00
3:55 PM,60.8,41.0,48,29.91,13.0,South,6.9,-,N/A,,Mostly Cloudy,170,2013-09-05 23:55:00
4:55 PM,60.8,39.2,45,29.91,13.0,South,4.6,-,N/A,,Mostly Cloudy,170,2013-09-06 00:55:00
5:55 PM,60.8,39.2,45,29.91,13.0,Calm,Calm,-,N/A,,Mostly Cloudy,0,2013-09-06 01:55:00
6:55 PM,59.0,44.6,59,29.92,13.0,Calm,Calm,-,N/A,,Mostly Cloudy,0,2013-09-06 02:55:00
7:55 PM,55.4,48.2,77,29.94,13.0,Calm,Calm,-,N/A,,Mostly Cloudy,0,2013-09-06 03:55:00
8:55 PM,53.6,48.2,82,29.95,13.0,Calm,Calm,-,N/A,,Mostly Cloudy,0,2013-09-06 04:55:00
9:55 PM,55.4,35.6,47,29.96,13.0,WSW,10.4,-,N/A,,Mostly Cloudy,250,2013-09-06 05:55:00
10:56 PM,51.1,37.9,61,29.97,10.0,Calm,Calm,-,N/A,,Partly Cloudy,0,2013-09-06 06:56:00
11:56 PM,46.0,39.0,76,29.98,10.0,Calm,Calm,-,N/A,,Clear,0,2013-09-06 07:56:00